Location: Quedlinburg
(51.7921°N, 11.1414°E)
Time: 20:31:37
(UTC+02:00)

RS-15 - Pass Details

Date: 20 March 2026
Orbit: 1893 x 2152 km, 64.8° (Epoch: 17 April)

Event Time Altitude Azimuth Distance (km) Brightness Sun altitude
Rises 19:51:20 0° 209° (SSW) 5,263 10.5 -13.4°
Reaches altitude 10° 19:54:32 10° 208° (SSW) 4,270 9.9 -13.9°
Maximum altitude 20:05:22 76° 126° (SE) 1,968 7.9 -15.5°
Drops below altitude 10° 20:16:36 10° 43° (NE) 4,413 9.7 -17.1°
Sets 20:19:58 0° 43° (NE) 5,447 10.2 -17.5°
